Showing default

ESTRELA DU SOL-TELSTAR14, 28137

Orbit data source: Space-Track

ESTRELA DU SOL-TELSTAR14, 28137 is a payload satellite owned by Loral Sky Brazil (US,BR) in GEO that was launched on Sun, 11 Jan 2004 UTC via a ZENIT-3SL launch vehicle from the Sea Launch (SEAL). Payload-class satellites include a variety of spacecraft equipped with specific instruments for various scientific and technological missions. These include communications satellites like Starlink; space stations such as the ISS; scientific satellites like the Hubble; Earth observation satellites from companies like Planet Labs, Umbra, and HawkEye 360; GPS; miniature CubeSats for education and research; and military/defense satellites.

Not visible in the next 10 days
Identifier
28137, 2004-001A
Orbit
GEO
Country
Flag of UnknownUnknown / USBZ
Related business
Manufacturer
SS/Loral
Mission
Non-operational Commercial Communications
Bus & Motor
SSL-1300, R-4D-11-164
Mass
4,694 kg wet, ~2,000 kg dry
Launch date (UTC)
2004-01-11 (22 years ago)
Launch vehicle
ZENIT-3SL
Launch site
Sea Launch (SEAL)
Object type
Payload
Rocket body
Debris
Shape & HBR
Box + 2 Pan, 15.5 m
Radar Cross Section
40.765 m², Large (>1 m²)

Expand to show TLE details & history
Last TLE update: 8 hours ago

TLE from 8 hours ago
0 ESTRELA DU SOL-TELSTAR14
1 28137U 04001A   25243.53585189  .00000043  00000-0  00000-0 0  9993
2 28137  10.4841  47.0446 0003656  62.8209 114.8015  0.98830330 78721
Epoch: 2025-08-31T12:51Z
TLE epoch observation values (Epoch: 2025-08-31T12:51:37.603Z)
Latitude
0.44153°
Longitude
51.87334°
Altitude
36,201.53 km
Speed
3.059 km/s
True Right ascension
14h 58m 56s
True Declination
0° 26' 28"
Sunlit
Object was in daylight at epoch
Visualization orbit readout
Latitude
Unknown
Longitude
Unknown
Altitude
Unknown
Speed
Unknown
Apparent Right ascension
Unknown
Apparent Declination
Unknown
Sunlit
N/A
Visualization observer readout
Local Sidereal Time
12:18:40
Azimuth
Unknown
Elevation
Unknown
Doppler factor
Unknown
Orbital elements
Apogee altitude
36,212.165 km
Perigee altitude
36,181.035 km
Semi-major axis
42,574.737 km
Eccentricity
0.00037
Inclination
10.4841°
RAAN
47.0446°
Arg. of periapsis
62.8209°
True anomaly
114.83952°
Mean anomaly
114.8015°
Eccentric anomaly
114.82051°
Mean motion
0.24707 °/min
Orbital period
1,457.09 mins
BSTAR
0
Loading maneuver chart data...
Computing Atmospheric mass density...
Loading historical data...
Loading historical data...
Loading historical data...
Loading historical data...
Loading historical data...
Loading historical data...
Loading historical data...
Other satellites on launch #1 in the year 2004 (2004-01-11 UTC)

Documentation

Showing up to 5 results
|